Regional Weather Roundup
Issued by NWS Sioux Falls, SD

Home | Current Version | Previous Version | Text Only | Print | Product List | Glossary On
Versions: 1 2 3 4 5 6 7 8 9 10 11 12 13 14 15 16 17 18 19 20 21 22 23 24 25 26 27 28 29 30 31 32 33 34 35 36 37 38 39 40 41 42 43 44 45 46 47 48 49 50
000
ASUS43 KFSD 271902
RWRFSD

WEATHER ROUNDUP FOR SE SOUTH DAKOTA/SW MINNESOTA/NW IOWA
NATIONAL WEATHER SERVICE SIOUX FALLS SD
200 PM CDT THU JUL 27 2017

NOTE: "FAIR" INDICATES FEW OR NO CLOUDS BELOW 12,000 FEET WITH NO
SIGNIFICANT WEATHER AND OR OBSTRUCTIONS TO VISIBILITY.


SDZ038>040-050-052>070-272000-
SOUTHEAST SOUTH DAKOTA

CITY           SKY/WX    TMP DP  RH WIND       PRES   REMARKS
BROOKINGS      MOSUNNY   78  60  53 NE7       30.13F
CHAMBERLAIN    SUNNY     84  60  43 SE8       30.12F
HURON          SUNNY     81  60  48 VRB3      30.11F
MADISON        FAIR      77  63  61 NE5       30.13F
MITCHELL       MOSUNNY   83  62  49 VRB5      30.11F
SIOUX FALLS    MOSUNNY   82  64  54 VRB3      30.10F
WINNER           N/A     84  58  40 SW6       30.13F
YANKTON        MOSUNNY   82  61  48 NE8       30.10F
$$

MNZ071-072-080-081-089-090-097-098-272000-
SOUTHWEST MINNESOTA

CITY           SKY/WX    TMP DP  RH WIND       PRES   REMARKS
FAIRMONT       MOSUNNY   80  64  58 NE6       30.08F
JACKSON        MOSUNNY   77  59  53 N3        30.11F
LUVERNE        SUNNY     81  57  44 N8        30.11F
MARSHALL       MOSUNNY   79  63  57 N8        30.11F
MONTEVIDEO     MOSUNNY   84  61  45 CALM      30.11F
PIPESTONE      MOSUNNY   81  61  50 NE3       30.13F
REDWOOD FALLS  SUNNY     82  60  47 MISG      30.09F
TRACY          MOSUNNY   78  64  63 N6        30.12S
WINDOM         SUNNY     79  61  53 N6        30.11S
WORTHINGTON    SUNNY     79  60  52 N10       30.12F
$$

IAZ001>003-012>014-020>022-031-032-NEZ013-014-SDZ071-272000-
NORTHWEST IOWA

CITY           SKY/WX    TMP DP  RH WIND       PRES   REMARKS
CHEROKEE       MOSUNNY   82  59  45 NE9       30.07F
DENISON        MOSUNNY   81  63  54 NE9       30.07F
ESTHERVILLE    MOSUNNY   80  63  55 N6        30.08F
ORANGE CITY    MOSUNNY   81  61  50 NE6       30.09F
SHELDON        MOSUNNY  N/A N/A N/A VRB6      30.08F
SIOUX CITY     MOSUNNY   85  61  44 NE10      30.06F
SPENCER        SUNNY     85  57  38 NE14      30.08F
STORM LAKE       N/A     81  63  54 NE12      30.08F
$$

ABBREVIATIONS USED IN REMARKS
   TC - TEMPERATURE IN CELSIUS
  WCI - WIND CHILL INDEX
   HX - HEAT INDEX
  VSB - VISIBILITY




USA.gov is the U.S. government's official web portal to all federal, state and local government web resources and services.